Change the Weather History Date:

Saturday, May 12, 2012

  Actual Average Record
Temperature  
Mean Temperature 82 °F -  
Max Temperature 100 °F 92 °F 108 °F (1988)
Min Temperature 66 °F 61 °F 49 °F (2000)
Cooling Degree Days 18    
Growing Degree Days 32 (Base 50)    
Moisture  
Dew Point 39 °F    
Average Humidity 25    
Maximum Humidity 47    
Minimum Humidity 7    
Precipitation  
Precipitation 0.00 in - - ()
Sea Level Pressure  
Sea Level Pressure 29.87 in    
Wind  
Wind Speed 5 mph (SE)    
Max Wind Speed 9 mph    
Max Gust Speed -    
Visibility 10 miles    
Events      
Averages and records for this station are not official NWS values.
T = Trace of Precipitation, MM = Missing Value Source: NWS Daily Summary

Daily Weather History Graph

Daily Weather History Graph

Search for Another Location

Airport or City:

Trip Planner

Search our weather history database for the weather conditions in past years. The results will help you decide how hot, cold, wet, or windy it might be!

Date:

Astronomy

May. 12, 2012 Rise Set
Actual Time 5:45 AM PDT 7:32 PM PDT
Civil Twilight 5:18 AM PDT 7:59 PM PDT
Nautical Twilight 4:45 AM PDT 8:32 PM PDT
Astronomical Twilight 4:10 AM PDT 9:07 PM PDT
Moon 12:55 AM PDT (5/12) 12:20 PM PDT (5/12)
Length of Visible Light 14h 41m
Length of Day
13h 47m
Waning Gibbous, 51% of the Moon is Illuminated
May 12
Waning Gibbous
May 12
Last Quarter
May 20
New
May 28
First Quarter
Jun 4
Full

Hourly Weather History & Observations

Time (PDT) Temp. Dew Point Humidity Pressure Visibility Wind Dir Wind Speed Gust Speed Precip Events Conditions
12:53 AM 70.0 °F 32.0 °F 25% 29.82 in 10.0 mi West 6.9 mph - N/A   Clear
1:53 AM 66.9 °F 36.0 °F 32% 29.83 in 10.0 mi WSW 6.9 mph - N/A   Clear
2:53 AM 66.0 °F 37.9 °F 36% 29.83 in 10.0 mi South 3.5 mph - N/A   Clear
3:53 AM 66.0 °F 44.1 °F 45% 29.84 in 10.0 mi SE 4.6 mph - N/A   Clear
4:53 AM 68.0 °F 43.0 °F 40% 29.85 in 10.0 mi SE 3.5 mph - N/A   Clear
5:53 AM 66.0 °F 43.0 °F 43% 29.87 in 10.0 mi ESE 3.5 mph - N/A   Clear
6:53 AM 66.0 °F 45.0 °F 47% 29.89 in 10.0 mi Calm Calm - N/A   Clear
7:53 AM 72.0 °F 45.0 °F 38% 29.92 in 10.0 mi ESE 4.6 mph - N/A   Clear
8:53 AM 77.0 °F 48.9 °F 37% 29.93 in 10.0 mi Calm Calm - N/A   Clear
9:53 AM 84.0 °F 51.1 °F 32% 29.93 in 10.0 mi Variable 3.5 mph - N/A   Clear
10:53 AM 89.1 °F 37.9 °F 16% 29.93 in 10.0 mi Variable 4.6 mph - N/A   Clear
11:53 AM 91.9 °F 41.0 °F 17% 29.92 in 10.0 mi ENE 4.6 mph - N/A   Clear
12:53 PM 93.9 °F 37.9 °F 14% 29.90 in 10.0 mi NE 4.6 mph - N/A   Clear
1:53 PM 96.1 °F 23.0 °F 7% 29.89 in 10.0 mi Variable 5.8 mph - N/A   Clear
2:53 PM 98.1 °F 28.9 °F 9% 29.86 in 10.0 mi ESE 6.9 mph - N/A   Clear
3:53 PM 99.0 °F 32.0 °F 10% 29.84 in 10.0 mi ESE 5.8 mph - N/A   Clear
4:53 PM 98.1 °F 36.0 °F 11% 29.82 in 10.0 mi Calm Calm - N/A   Clear
5:53 PM 99.0 °F 37.0 °F 12% 29.81 in 10.0 mi NE 4.6 mph - N/A   Clear
6:53 PM 98.1 °F 37.9 °F 12% 29.81 in 10.0 mi ESE 5.8 mph - N/A   Clear
7:53 PM 93.0 °F 39.0 °F 15% 29.82 in 10.0 mi ESE 6.9 mph - N/A   Clear
8:53 PM 82.9 °F 45.0 °F 26% 29.85 in 10.0 mi WSW 4.6 mph - N/A   Clear
9:53 PM 80.1 °F 44.1 °F 28% 29.87 in 10.0 mi SW 8.1 mph - N/A   Clear
10:53 PM 79.0 °F 39.9 °F 25% 29.87 in 10.0 mi WSW 6.9 mph - N/A   Clear
11:53 PM 73.9 °F 42.1 °F 32% 29.87 in 10.0 mi West 9.2 mph - N/A   Clear